Regional Weather Roundup
Issued by NWS

Home | Current Version | Previous Version | Text Only | Print | Product List | Glossary Off
Versions: 1 2 3 4 5 6 7 8 9 10 11 12 13 14 15 16 17 18 19 20 21 22 23 24 25 26 27 28 29 30 31 32 33 34 35 36 37 38 39 40 41 42 43 44 45 46 47 48 49 50

000
ASUS45 KBOU 011210
RWRCO

WEATHER ROUNDUP FOR COLORADO
NATIONAL WEATHER SERVICE DENVER/BOULDER CO
600 AM MDT SAT AUG 01 2015

NOTE: "FAIR" INDICATES FEW OR NO CLOUDS BELOW 12000 FEET WITH NO
SIGNIFICANT WEATHER AND/OR OBSTRUCTIONS TO VISIBILITY.

COZ001>005-013-030-031-011300-
...NORTHWEST COLORADO...

CITY           SKY/WX    TMP DP  RH WIND       PRES   REMARKS
CRAIG          CLEAR     42  34  73 W3        30.28R
HAYDEN         CLEAR     54  34  47 E12       30.29S
MEEKER         CLEAR     50  35  56 CALM      30.30R
MOUNT WERNER   NOT AVBL
STEAMBOAT SPGS CLEAR     47  40  76 CALM      30.32S
WALDEN         CLEAR     41  34  75 SE5       30.40S
$$

COZ006>008-011-011300-
...WEST CENTRAL VALLEYS...

CITY           SKY/WX    TMP DP  RH WIND       PRES   REMARKS
GRAND JUNCTION PTCLDY    68  46  45 E9        30.17R
MONTROSE       PTCLDY    61  46  57 S5        30.28R
EAGLE          PTCLDY    54  41  62 CALM      30.35R
RIFLE          PTCLDY    57  40  52 CALM      30.25R
DELTA          PTCLDY    60  47  62 CALM      30.23S
NUCLA          PTCLDY    63  45  51 E7        30.31S
$$

COZ017>023-064>068-011300-
...SOUTHWEST COLORADO...

CITY           SKY/WX    TMP DP  RH WIND       PRES   REMARKS
DURANGO        CLOUDY    60  54  80 CALM      30.34S
CORTEZ         CLOUDY    64  58  80 CALM      30.27S
PAGOSA SPRINGS CLOUDY    56  54  90 CALM      30.42S
TELLURIDE      MOCLDY    55  48  77 CALM      30.51S
WOLF CREEK PAS NOT AVBL
$$

COZ009-010-012-014-032>034-037-058>063-011300-
...CENTRAL COLORADO...

CITY           SKY/WX    TMP DP  RH WIND       PRES   REMARKS
ASPEN          PTCLDY    53  42  66 S6        30.39S
BUENA VISTA    MOCLDY    50  46  88 NW7       30.43S
COPPER MTN     PTCLDY    54  34  47 W12       30.70F
BERTHOUD PASS  FAIR      45  34  65 CALM      30.75S
COTTONWOOD PAS CLOUDY    57  41  54 W7        30.55S
GUNNISON       MOCLDY    52  45  76 N5        30.46S
KREMMLING      PTCLDY    46  41  81 CALM      30.41R
LEADVILLE      PTCLDY    39  39 100 N5        30.55S
MONARCH PASS   PTCLDY    46  39  76 SW14      30.79S
SALIDA         NOT AVBL
SUNLIGHT       PTCLDY    54  39  58 CALM      30.64R
WILKERSON PASS MOCLDY    48  41  76 W8        30.67S
$$

COZ069>075-011300-
...SAN LUIS VALLEY/SANGRE DE CRISTO MOUNTAINS...

CITY           SKY/WX    TMP DP  RH WIND       PRES   REMARKS
ALAMOSA        CLOUDY    55  53  93 CALM      30.40S
LA VETA PASS   CLOUDY    46  43  87 MISG      30.54F
SAGUACHE       CLOUDY    55  46  71 NW8       30.43R
$$

COZ035-036-038>040-011300-
...NORTHERN COLORADO FRONT RANGE...

CITY           SKY/WX    TMP DP  RH WIND       PRES   REMARKS
DENVER INTL AP PTCLDY    65  52  62 SW3       30.19S
DMNS CITY PARK   N/A     65  51  61 E7        30.19S
AURORA         PTCLDY    66  55  66 SW13      30.21S
FRONT RANGE AP PTCLDY    63  54  72 S8        30.20S
ERIE MUNI ARPT CLEAR     57  52  82 CALM      30.18S
BOULDER MUN AP CLEAR     63  52  67 CALM      30.18S
CENTENNIAL     PTCLDY    64  53  67 S9        30.22S
BROOMFIELD     CLEAR     61  48  63 CALM      30.22R
FORT COLLINS   CLEAR     57  52  82 N5        30.19S
LONGMONT       CLEAR     59  51  75 W3        30.19S
$$

COZ041-046-047-076>085-087-088-011300-
...PIKES PEAK/PALMER DIVIDE AND SOUTHERN FOOTHILLS...

CITY           SKY/WX    TMP DP  RH WIND       PRES   REMARKS
COLO. SPRINGS  PTCLDY    58  54  86 NE3       30.29F
A. F. ACADEMY  PTCLDY    52  49  90 N7        30.30F
ELLICOTT       PTCLDY   N/A N/A N/A SE6       30.27F
FALCON         PTCLDY    56  55  97 CALM      30.34S
FORT CARSON    PTCLDY    56  51  82 NW6       30.26S
LIMON          CLEAR     50  49  96 CALM      30.24F
MONUMENT HILL  PTCLDY    57  55  94 S9        30.32S
TRINIDAD       CLEAR     59  54  83 W8        30.25F
$$

COZ042>045-048>051-090-091-011300-
...NORTHEAST COLORADO...

CITY           SKY/WX    TMP DP  RH WIND       PRES   REMARKS
GREELEY ARPT   CLEAR     57  54  88 NE6       30.17S
AKRON          CLEAR     64  60  87 S10       30.17F
BURLINGTON     CLEAR     61  58  90 SW7       30.18S
WRAY           CLEAR     61  59  92 SW7       30.14S
STERLING       CLEAR     55  54  94 SW5       30.13F
HOLYOKE        NOT AVBL
FORT MORGAN    CLEAR     59  55  87 CALM      30.18S
$$

COZ086-089-092>099-011300-
...SOUTHEAST COLORADO...

CITY           SKY/WX    TMP DP  RH WIND       PRES   REMARKS
PUEBLO         CLEAR     63  54  72 N3        30.20S
LA JUNTA       PTCLDY    62  60  93 N5        30.15F
LAMAR          CLEAR     63  61  93 CALM      30.13S
SPRINGFIELD      N/A     62  62 100 SE5       30.18F
$$



USA.gov is the U.S. government's official web portal to all federal, state and local government web resources and services.